When you browse on this site, cookies collect data to enhance your experience and personalize the content and advertising you see.
Visit our Privacy Policy to learn more. By continuing to use the site, you agree to this use of cookies and data.
  • In Latvia
  • List of Countries
  • For 7 days
  • Water Temperature
  • Satellite Maps
  • Weather Map
  • Weather Widgets
  • user-avatar
    Login

    Hourly Weather Popowiczki

    Today, 23 February, Saturday

    Time Temperature Precipitation Wind Pressure Humidity
    00:00 -4°C° 0 mm 2 mps 776 mmHg 50%
    01:00 -4°C° 0 mm 2 mps 777 mmHg 45%
    02:00 -2°C° 0 mm 1 mps 777 mmHg 46%
    03:00 -3°C° 0 mm 1 mps 776 mmHg 46%
    04:00 -4°C° 0 mm 0 mps 776 mmHg 47%
    05:00 -4°C° 0 mm 0 mps 776 mmHg 47%
    06:00 -4°C° 0 mm 0 mps 776 mmHg 46%
    07:00 -4°C° 0 mm 0 mps 777 mmHg 47%
    08:00 -2°C° 0 mm 1 mps 777 mmHg 42%
    09:00 -1°C° 0 mm 1 mps 776 mmHg 37%
    10:00 -1°C° 0 mm 1 mps 776 mmHg 33%
    11:00 -2°C° 0 mm 2 mps 776 mmHg 30%
    12:00 -1°C° 0 mm 2 mps 776 mmHg 28%
    13:00 +1°C° 0 mm 2 mps 776 mmHg 26%
    14:00 +1°C° 0 mm 2 mps 775 mmHg 28%
    15:00 +1°C° 0 mm 2 mps 775 mmHg 29%
    16:00 +1°C° 0 mm 2 mps 774 mmHg 31%
    17:00 -1°C° 0 mm 2 mps 774 mmHg 34%
    18:00 -1°C° 0 mm 2 mps 774 mmHg 37%
    19:00 -2°C° 0 mm 2 mps 773 mmHg 41%
    20:00 -2°C° 0 mm 2 mps 773 mmHg 42%
    21:00 -2°C° 0 mm 2 mps 773 mmHg 43%
    22:00 -3°C° 0 mm 2 mps 773 mmHg 43%
    23:00 -3°C° 0 mm 2 mps 773 mmHg 43%

    Tomorrow, 24 February, Sunday

    Time Temperature Precipitation Wind Pressure Humidity
    00:00 -4°C° 0 mm 3 mps 772 mmHg 43%
    01:00 -4°C° 0 mm 3 mps 772 mmHg 43%
    02:00 -4°C° 0 mm 3 mps 772 mmHg 42%
    03:00 -2°C° 0 mm 3 mps 772 mmHg 41%
    04:00 -2°C° 0 mm 3 mps 771 mmHg 41%
    05:00 -2°C° 0 mm 3 mps 771 mmHg 41%
    06:00 -2°C° 0 mm 3 mps 771 mmHg 42%
    07:00 -1°C° 0 mm 3 mps 771 mmHg 42%
    08:00 0°C° 0 mm 3 mps 771 mmHg 40%
    09:00 -1°C° 0 mm 4 mps 771 mmHg 38%
    10:00 0°C° 0 mm 4 mps 770 mmHg 36%
    11:00 +3°C° 0 mm 4 mps 770 mmHg 36%
    12:00 +4°C° 0 mm 4 mps 770 mmHg 36%
    13:00 +5°C° 0 mm 4 mps 770 mmHg 36%
    14:00 +5°C° 0 mm 4 mps 770 mmHg 42%
    15:00 +4°C° 0 mm 3 mps 769 mmHg 47%
    16:00 +4°C° 0 mm 3 mps 769 mmHg 53%
    17:00 +3°C° 0 mm 3 mps 769 mmHg 57%
    18:00 +2°C° 0 mm 3 mps 769 mmHg 62%
    19:00 +1°C° 0 mm 3 mps 769 mmHg 67%
    20:00 0°C° 0 mm 3 mps 769 mmHg 67%
    21:00 0°C° 0 mm 3 mps 769 mmHg 68%
    22:00 0°C° 0 mm 3 mps 769 mmHg 69%
    23:00 0°C° 0 mm 3 mps 769 mmHg 72%

    Day after tomorrow, 25 February, Monday

    Time Temperature Precipitation Wind Pressure Humidity
    00:00 -1°C° 0 mm 3 mps 769 mmHg 75%
    01:00 -1°C° 0 mm 3 mps 769 mmHg 78%
    02:00 -1°C° 0 mm 3 mps 768 mmHg 82%
    03:00 -1°C° 0 mm 3 mps 768 mmHg 86%
    04:00 -1°C° 0 mm 3 mps 768 mmHg 90%
    05:00 -1°C° 0 mm 3 mps 768 mmHg 92%
    06:00 -1°C° 0 mm 3 mps 768 mmHg 94%
    07:00 -1°C° 0 mm 3 mps 768 mmHg 95%
    08:00 0°C° 0 mm 3 mps 768 mmHg 94%
    09:00 0°C° 0 mm 4 mps 768 mmHg 92%
    10:00 +3°C° 0 mm 4 mps 769 mmHg 91%
    11:00 +3°C° 0 mm 4 mps 768 mmHg 87%
    12:00 +4°C° 0 mm 4 mps 768 mmHg 84%
    13:00 +5°C° 0 mm 3 mps 768 mmHg 80%
    14:00 +5°C° 0 mm 3 mps 768 mmHg 77%
    15:00 +7°C° 0 mm 3 mps 767 mmHg 75%
    16:00 +7°C° 0 mm 3 mps 767 mmHg 72%
    17:00 +5°C° 0 mm 3 mps 767 mmHg 77%
    18:00 +4°C° 0 mm 3 mps 767 mmHg 81%
    19:00 +3°C° 0 mm 3 mps 767 mmHg 86%
    20:00 +2°C° 0 mm 3 mps 767 mmHg 88%
    21:00 +2°C° 0 mm 3 mps 766 mmHg 90%
    22:00 +2°C° 0 mm 3 mps 766 mmHg 93%
    23:00 +2°C° 0 mm 3 mps 766 mmHg 94%

    26 February, Tuesday

    Time Temperature Precipitation Wind Pressure Humidity
    00:00 +2°C° 0 mm 3 mps 766 mmHg 95%
    01:00 +2°C° 0 mm 3 mps 765 mmHg 96%
    02:00 +3°C° 0 mm 4 mps 765 mmHg 96%
    03:00 +3°C° 0 mm 4 mps 764 mmHg 96%
    04:00 +4°C° 0 mm 4 mps 764 mmHg 95%
    05:00 +4°C° 0 mm 4 mps 764 mmHg 95%
    06:00 +4°C° 0 mm 4 mps 763 mmHg 95%
    07:00 +3°C° 0 mm 4 mps 763 mmHg 94%
    08:00 +4°C° 0 mm 4 mps 763 mmHg 91%
    09:00 +5°C° 0 mm 4 mps 763 mmHg 87%
    10:00 +5°C° 0 mm 5 mps 763 mmHg 84%
    11:00 +7°C° 0 mm 5 mps 763 mmHg 78%
    12:00 +8°C° 0 mm 5 mps 763 mmHg 73%
    13:00 +9°C° 0 mm 5 mps 763 mmHg 67%
    14:00 +9°C° 0 mm 5 mps 763 mmHg 68%
    15:00 +10°C° 0 mm 4 mps 763 mmHg 69%
    16:00 +10°C° 0 mm 4 mps 763 mmHg 69%
    17:00 +8°C° 0 mm 4 mps 763 mmHg 75%
    18:00 +7°C° 0 mm 3 mps 763 mmHg 81%
    19:00 +5°C° 0 mm 3 mps 764 mmHg 88%
    20:00 +5°C° 0 mm 3 mps 764 mmHg 89%
    21:00 +5°C° 0 mm 2 mps 764 mmHg 91%
    22:00 +4°C° 0 mm 2 mps 764 mmHg 93%
    23:00 +4°C° 0 mm 2 mps 764 mmHg 93%

    27 February, Wednesday

    Time Temperature Precipitation Wind Pressure Humidity
    00:00 +4°C° 0 mm 2 mps 763 mmHg 94%
    01:00 +3°C° 0 mm 2 mps 763 mmHg 95%
    02:00 +3°C° 0 mm 2 mps 763 mmHg 94%
    03:00 +3°C° 0 mm 2 mps 763 mmHg 93%
    04:00 +3°C° 0 mm 2 mps 762 mmHg 92%
    05:00 +2°C° 0 mm 2 mps 762 mmHg 91%
    06:00 +1°C° 0 mm 3 mps 762 mmHg 90%
    07:00 +1°C° 0 mm 3 mps 761 mmHg 90%
    08:00 +2°C° 0 mm 3 mps 761 mmHg 85%
    09:00 +4°C° 0 mm 4 mps 761 mmHg 80%
    10:00 +5°C° 0 mm 4 mps 761 mmHg 76%
    11:00 +6°C° 0 mm 4 mps 760 mmHg 71%
    12:00 +8°C° 0 mm 5 mps 760 mmHg 65%
    13:00 +9°C° 0 mm 5 mps 760 mmHg 60%
    14:00 +9°C° 0 mm 5 mps 759 mmHg 62%
    15:00 +10°C° 0 mm 4 mps 759 mmHg 63%
    16:00 +10°C° 0 mm 4 mps 758 mmHg 65%
    17:00 +8°C° 0 mm 4 mps 758 mmHg 71%
    18:00 +8°C° 0 mm 3 mps 758 mmHg 78%
    19:00 +5°C° 0 mm 3 mps 758 mmHg 84%
    20:00 +5°C° 0 mm 3 mps 757 mmHg 87%
    21:00 +5°C° 0 mm 3 mps 757 mmHg 89%
    22:00 +4°C° 0 mm 3 mps 756 mmHg 92%
    23:00 +4°C° 0 mm 3 mps 756 mmHg 91%

    28 February, Thursday

    Time Temperature Precipitation Wind Pressure Humidity
    00:00 +4°C° 0 mm 3 mps 755 mmHg 91%
    01:00 +4°C° 0 mm 4 mps 754 mmHg 90%
    02:00 +4°C° 0 mm 4 mps 754 mmHg 89%
    03:00 +4°C° 0 mm 4 mps 753 mmHg 87%
    04:00 +4°C° 0 mm 4 mps 752 mmHg 86%
    05:00 +3°C° 0 mm 5 mps 751 mmHg 85%
    06:00 +3°C° 0 mm 5 mps 750 mmHg 84%
    07:00 +2°C° 0 mm 5 mps 749 mmHg 82%
    08:00 +3°C° 0 mm 6 mps 749 mmHg 80%
    09:00 +4°C° 0 mm 7 mps 749 mmHg 79%
    10:00 +5°C° 0 mm 8 mps 748 mmHg 77%
    11:00 +5°C° 0 mm 8 mps 748 mmHg 78%
    12:00 +5°C° 0 mm 8 mps 748 mmHg 78%
    13:00 +5°C° 0 mm 8 mps 748 mmHg 79%
    14:00 +5°C° 0 mm 8 mps 748 mmHg 79%
    15:00 +5°C° 0 mm 8 mps 748 mmHg 79%
    16:00 +5°C° 0 mm 7 mps 749 mmHg 78%
    17:00 +5°C° 0 mm 7 mps 749 mmHg 79%
    18:00 +5°C° 0 mm 7 mps 749 mmHg 79%
    19:00 +5°C° 0 mm 7 mps 749 mmHg 79%
    20:00 +4°C° 0 mm 7 mps 750 mmHg 81%
    21:00 +4°C° 0 mm 6 mps 750 mmHg 82%
    22:00 +3°C° 0 mm 6 mps 750 mmHg 84%
    23:00 +3°C° 0 mm 6 mps 750 mmHg 84%
    Show more